AE5HO Weather Reports


Display with metric or nautical units.
time (UTC)temp
F
wind
direction
speed
MPH
gust
MPH
rain 1hr
in
rain 24hr
in
rain mn
in
humidity
%
barometer
mb
20260506215852 64 93 3.0 6.0 0.00 0.06 0.06 72 1014.0
20260506215348 64 154 1.0 5.0 0.00 0.06 0.06 73 1014.0
20260506214844 63 90 1.0 4.0 0.00 0.06 0.06 73 1014.2
20260506214341 63 60 3.0 3.0 0.00 0.06 0.06 74 1013.8
20260506213839 63 82 4.0 6.0 0.00 0.06 0.06 73 1013.5
20260506213336 63 22 3.0 6.0 0.00 0.06 0.06 73 1013.7
20260506212833 63 350 2.0 6.0 0.00 0.06 0.06 72 1013.7
20260506212329 64 101 2.0 4.0 0.00 0.06 0.06 72 1014.1
20260506211824 63 48 2.0 4.0 0.00 0.06 0.06 73 1014.1
20260506211321 63 36 0.0 5.0 0.00 0.06 0.06 73 1014.1
20260506210818 63 35 1.0 4.0 0.00 0.06 0.06 72 1014.2
20260506210315 64 70 3.0 3.0 0.00 0.06 0.06 72 1014.3
20260506205812 63 82 4.0 5.0 0.00 0.06 0.06 73 1014.1
20260506205308 63 75 0.0 3.0 0.00 0.06 0.06 73 1014.1
20260506204804 62 36 0.0 3.0 0.00 0.06 0.06 72 1014.3
20260506204302 63 161 2.0 4.0 0.00 0.06 0.06 72 1014.0
20260506203800 63 25 3.0 5.0 0.00 0.06 0.06 72 1014.0
20260506203257 63 123 0.0 3.0 0.00 0.06 0.06 73 1014.6
20260506202754 63 270 3.0 4.0 0.00 0.06 0.06 73 1014.4
20260506202251 63 5 0.0 3.0 0.00 0.06 0.06 72 1014.6
20260506201747 62 57 2.0 5.0 0.00 0.06 0.06 73 1014.4
20260506201244 62 229 2.0 4.0 0.00 0.06 0.06 73 1014.2
20260506200741 62 26 0.0 3.0 0.00 0.06 0.06 73 1014.7
20260506200238 62 165 2.0 5.0 0.00 0.06 0.06 74 1014.8
20260506195734 62 106 0.0 2.0 0.00 0.06 0.06 73 1015.0
20260506195230 62 45 3.0 5.0 0.00 0.06 0.06 73 1014.9
20260506194728 61 65 0.0 5.0 0.00 0.06 0.06 75 1015.1
20260506194224 60 41 2.0 4.0 0.00 0.06 0.06 75 1015.2
20260506193722 61 38 2.0 3.0 0.00 0.06 0.06 75 1015.2
20260506193219 60 90 0.0 2.0 0.00 0.06 0.06 76 1015.4
20260506192715 60 185 2.0 6.0 0.00 0.06 0.06 76 1015.5
20260506192212 60 77 0.0 3.0 0.00 0.06 0.06 75 1015.1
20260506191709 60 5 1.0 5.0 0.00 0.06 0.06 77 1015.2
20260506191205 60 61 0.0 3.0 0.00 0.06 0.06 77 1015.5
20260506190703 60 98 0.0 3.0 0.00 0.06 0.06 77 1015.5
20260506190159 59 106 0.0 3.0 0.00 0.06 0.06 77 1015.4
20260506185656 59 139 0.0 3.0 0.00 0.06 0.06 76 1015.4
20260506185152 59 71 3.0 5.0 0.00 0.06 0.06 77 1015.4
20260506184650 59 1 5.0 5.0 0.00 0.06 0.06 76 1015.0
20260506184147 60 114 0.0 2.0 0.00 0.06 0.06 77 1015.0
20260506183644 60 216 2.0 3.0 0.00 0.06 0.06 78 1014.4
20260506183140 59 70 2.0 5.0 0.00 0.06 0.06 79 1013.9
20260506182637 58 60 5.0 5.0 0.00 0.06 0.06 78 1014.0
20260506182134 58 81 6.0 7.0 0.00 0.06 0.06 78 1014.3
20260506181632 58 86 5.0 7.0 0.00 0.06 0.06 80 1014.0
20260506181129 58 83 4.0 7.0 0.00 0.06 0.06 79 1013.8
20260506180626 58 86 5.0 5.0 0.00 0.06 0.06 81 1014.2
20260506180122 58 126 0.0 6.0 0.00 0.06 0.06 80 1014.4
20260506175618 58 266 3.0 8.0 0.00 0.06 0.06 81 1014.8
20260506175114 57 180 2.0 5.0 0.00 0.06 0.06 83 1014.6
20260506174614 57 180 1.0 5.0 0.00 0.06 0.06 84 1014.6
20260506174110 56 74 2.0 4.0 0.00 0.06 0.06 84 1014.5
20260506173608 56 20 3.0 5.0 0.00 0.06 0.06 84 1014.9
20260506173104 56 81 0.0 3.0 0.00 0.06 0.06 85 1014.7
20260506172602 55 74 4.0 6.0 0.00 0.06 0.06 85 1014.5
20260506172057 55 61 2.0 6.0 0.00 0.06 0.06 86 1014.4
20260506171555 55 90 0.0 7.0 0.00 0.06 0.06 86 1014.3
20260506171053 55 67 2.0 5.0 0.00 0.06 0.06 87 1014.7
20260506170549 55 197 3.0 9.0 0.00 0.06 0.06 87 1014.9
20260506170047 55 80 2.0 4.0 0.00 0.06 0.06 88 1015.0
20260506165546 55 4 2.0 5.0 0.00 0.06 0.06 88 1015.1
20260506165042 54 84 3.0 5.0 0.00 0.06 0.06 88 1014.9
20260506164538 55 90 0.0 4.0 0.00 0.06 0.06 90 1015.2
20260506164036 55 66 1.0 5.0 0.00 0.06 0.06 90 1015.1
20260506163532 54 83 0.0 5.0 0.00 0.06 0.06 90 1015.2
20260506163028 55 82 0.0 9.0 0.00 0.06 0.06 91 1015.3
20260506162524 55 90 2.0 4.0 0.00 0.06 0.06 91 1015.4
20260506162021 55 105 1.0 1.0 0.00 0.06 0.06 90 1015.8
20260506161519 55 172 0.0 3.0 0.00 0.06 0.06 91 1015.6
20260506161015 55 86 2.0 3.0 0.00 0.06 0.06 91 1015.1
20260506160513 55 65 2.0 5.0 0.00 0.06 0.06 91 1015.0
20260506160011 54 0 2.0 4.0 0.02 0.06 0.06 92 1014.3
20260506155509 54 90 3.0 9.0 0.00 0.05 0.05 94 1014.2
20260506153640 54 75 1.0 3.0 0.02 0.05 0.05 94 1014.9
20260506153137 53 57 3.0 5.0 0.17 0.05 0.05 93 1015.1
20260506152634 53 90 2.0 3.0 0.17 0.04 0.04 92 1015.2
20260506152132 53 146 2.0 8.0 0.07 0.02 0.02 90 1015.5
20260506151630 54 286 0.0 1.0 0.07 0.02 0.02 88 1016.9
20260506151127 54 77 2.0 3.0 0.07 0.01 0.01 87 1016.7
20260506150624 54 262 0.0 1.0 0.00 0.00 0.00 86 1016.5
20260506150121 54 175 1.0 6.0 0.00 0.00 0.00 83 1016.0
20260506145618 55 81 2.0 4.0 0.00 0.00 0.00 83 1015.6
20260506145114 55 270 0.0 2.0 0.00 0.00 0.00 83 1015.9
20260506144611 55 318 0.0 4.0 0.00 0.00 0.00 83 1015.4
20260506144108 55 90 1.0 5.0 0.00 0.00 0.00 83 1014.8
20260506143606 55 12 1.0 5.0 0.00 0.00 0.00 83 1014.5
20260506143104 55 29 6.0 6.0 0.00 0.00 0.00 83 1014.1
20260506142602 54 57 5.0 5.0 0.00 0.00 0.00 83 1015.4
20260506142100 55 270 0.0 3.0 0.00 0.00 0.00 83 1015.6
20260506141557 55 341 2.0 5.0 0.00 0.00 0.00 82 1015.5
20260506141055 55 165 0.0 4.0 0.00 0.00 0.00 82 1015.3
20260506140552 54 90 1.0 4.0 0.00 0.00 0.00 82 1015.2
20260506140050 55 51 5.0 6.0 0.00 0.00 0.00 82 1014.8
20260506135546 55 90 2.0 5.0 0.00 0.00 0.00 82 1014.4
20260506135042 54 103 0.0 4.0 0.00 0.00 0.00 83 1014.6
20260506134539 54 96 1.0 7.0 0.00 0.00 0.00 83 1014.7
20260506134035 54 85 3.0 6.0 0.00 0.00 0.00 83 1014.3
20260506133532 54 358 3.0 7.0 0.00 0.00 0.00 83 1014.1
20260506133029 54 334 0.0 5.0 0.00 0.00 0.00 83 1014.4
20260506132526 54 54 3.0 7.0 0.00 0.00 0.00 83 1014.2
20260506132024 54 328 0.0 9.0 0.00 0.00 0.00 83 1014.1
20260506131521 54 332 0.0 4.0 0.00 0.00 0.00 82 1013.8
20260506131017 54 24 0.0 5.0 0.00 0.00 0.00 83 1014.0
20260506130514 54 331 4.0 6.0 0.00 0.00 0.00 83 1013.9
20260506130012 54 81 3.0 7.0 0.00 0.00 0.00 83 1013.7
20260506125510 54 103 1.0 6.0 0.00 0.00 0.00 83 1013.5
20260506125007 54 32 0.0 4.0 0.00 0.00 0.00 83 1013.7
20260506124505 54 320 0.0 7.0 0.00 0.00 0.00 83 1013.6
20260506124003 54 337 2.0 8.0 0.00 0.00 0.00 83 1013.7
20260506123500 54 74 2.0 3.0 0.00 0.00 0.00 82 1013.6
20260506122958 54 63 2.0 5.0 0.00 0.00 0.00 81 1013.4
20260506122454 54 231 2.0 5.0 0.00 0.00 0.00 81 1013.1
20260506121953 54 107 4.0 8.0 0.00 0.00 0.00 80 1013.3
20260506121450 55 161 4.0 4.0 0.00 0.00 0.00 79 1013.6
20260506120946 55 103 1.0 3.0 0.00 0.00 0.00 79 1013.3
20260506120444 55 297 0.0 4.0 0.00 0.00 0.00 79 1013.3
20260506115941 55 285 2.0 5.0 0.00 0.00 0.00 78 1013.4
20260506115439 55 90 0.0 5.0 0.00 0.00 0.00 78 1013.4
20260506114937 55 70 2.0 5.0 0.00 0.00 0.00 78 1013.1
20260506114434 55 170 0.0 5.0 0.00 0.00 0.00 77 1012.8
20260506113933 55 37 2.0 6.0 0.00 0.00 0.00 77 1012.8
20260506113430 56 104 0.0 6.0 0.00 0.00 0.00 77 1012.8
20260506112926 56 90 2.0 5.0 0.00 0.00 0.00 78 1012.7
20260506112425 56 158 3.0 6.0 0.00 0.00 0.00 77 1012.6
20260506111921 56 40 2.0 3.0 0.00 0.00 0.00 77 1012.3
20260506111419 56 157 0.0 5.0 0.00 0.00 0.00 77 1012.3
20260506110916 56 319 2.0 9.0 0.00 0.00 0.00 77 1012.5
20260506110414 56 221 2.0 5.0 0.00 0.00 0.00 77 1012.3
20260506105910 56 116 3.0 8.0 0.00 0.00 0.00 76 1012.2
20260506105407 57 90 1.0 5.0 0.00 0.00 0.00 76 1012.2
20260506104904 56 331 1.0 5.0 0.00 0.00 0.00 76 1012.0
20260506104402 57 299 3.0 8.0 0.00 0.00 0.00 76 1011.9
20260506103900 57 77 3.0 5.0 0.00 0.00 0.00 76 1012.0
20260506103357 57 180 0.0 6.0 0.00 0.00 0.00 76 1011.8
20260506102854 57 69 0.0 5.0 0.00 0.00 0.00 76 1011.8
20260506102352 57 85 0.0 5.0 0.00 0.00 0.00 76 1011.7
20260506101849 57 77 6.0 6.0 0.00 0.00 0.00 75 1011.5
20260506101345 57 164 2.0 4.0 0.00 0.00 0.00 76 1011.4
20260506100843 57 341 2.0 4.0 0.00 0.00 0.00 76 1011.5
20260506100341 57 164 6.0 6.0 0.00 0.00 0.00 75 1011.3
20260506095839 57 120 2.0 4.0 0.00 0.00 0.00 76 1011.2
20260506095336 57 71 3.0 6.0 0.00 0.00 0.00 76 1011.3
20260506094832 58 75 2.0 4.0 0.00 0.00 0.00 76 1011.2
20260506094332 58 331 0.0 3.0 0.00 0.00 0.00 76 1011.1
20260506093829 58 90 2.0 5.0 0.00 0.00 0.00 77 1011.3
20260506093326 58 114 2.0 5.0 0.00 0.00 0.00 77 1010.9
20260506092824 58 0 1.0 4.0 0.00 0.00 0.00 77 1011.0
20260506092321 58 342 3.0 4.0 0.00 0.00 0.00 77 1011.1
20260506091818 58 52 0.0 4.0 0.00 0.00 0.00 77 1010.9
20260506091316 58 93 0.0 4.0 0.00 0.00 0.00 77 1010.9
20260506090813 58 98 0.0 6.0 0.00 0.00 0.00 77 1011.0
20260506090310 58 17 2.0 5.0 0.00 0.00 0.00 77 1010.9
20260506085807 58 139 2.0 4.0 0.00 0.00 0.00 77 1010.7
20260506085305 58 148 0.0 5.0 0.00 0.00 0.00 77 1010.7
20260506084800 58 356 0.0 4.0 0.00 0.00 0.00 77 1010.7
20260506084256 59 48 4.0 4.0 0.00 0.00 0.00 77 1010.7
20260506083753 59 56 6.0 6.0 0.00 0.00 0.00 77 1010.4
20260506083251 59 81 2.0 3.0 0.00 0.00 0.00 77 1010.5
20260506082748 59 77 2.0 3.0 0.00 0.00 0.00 77 1010.7
20260506082243 59 97 1.0 2.0 0.00 0.00 0.00 78 1010.7
20260506081741 59 86 3.0 5.0 0.00 0.00 0.00 78 1010.5
20260506081238 59 63 1.0 5.0 0.00 0.00 0.00 77 1010.6
20260506080737 59 105 0.0 4.0 0.00 0.00 0.00 77 1010.5
20260506080233 59 86 0.0 3.0 0.00 0.00 0.00 78 1010.5
20260506073217 59 68 3.0 7.0 0.00 0.00 0.00 77 1009.7
20260506072714 60 270 0.0 3.0 0.00 0.00 0.00 77 1010.0
20260506072211 60 279 2.0 5.0 0.00 0.00 0.00 77 1010.3
20260506071709 60 177 3.0 3.0 0.00 0.00 0.00 78 1010.2
20260506071207 60 169 0.0 4.0 0.00 0.00 0.00 77 1010.0
20260506070703 60 75 0.0 3.0 0.00 0.00 0.00 77 1010.4
20260506070200 60 162 1.0 6.0 0.00 0.00 0.00 77 1010.3
20260506062137 61 84 2.0 5.0 0.00 0.00 0.00 79 1010.0
20260506061633 61 344 2.0 4.0 0.00 0.00 0.00 79 1010.4
20260506061131 61 278 0.0 3.0 0.00 0.00 0.00 79 1010.3
20260506060629 61 355 2.0 5.0 0.00 0.00 0.00 79 1010.1
20260506060126 61 81 0.0 5.0 0.00 0.00 0.00 80 1010.3
20260506051058 62 159 3.0 4.0 0.00 0.00 0.00 79 1010.3
20260506050555 62 16 2.0 3.0 0.00 0.00 0.00 79 1010.2
20260506045046 63 30 0.0 4.0 0.00 0.00 0.00 79 1010.3
20260506044544 63 340 3.0 5.0 0.00 0.00 0.00 79 1009.9
20260506044041 63 29 0.0 7.0 0.00 0.00 0.00 79 1010.3
20260506043538 63 6 3.0 7.0 0.00 0.00 0.00 78 1010.3
20260506043036 64 3 3.0 7.0 0.00 0.00 0.00 78 1010.2
20260506042535 64 254 0.0 4.0 0.00 0.00 0.00 79 1010.2
20260506042032 64 233 3.0 4.0 0.00 0.00 0.00 78 1010.1
20260506041531 64 276 3.0 5.0 0.00 0.00 0.00 79 1009.9
20260506041027 64 71 3.0 9.0 0.00 0.00 0.00 78 1009.6
20260506040525 64 7 0.0 6.0 0.00 0.00 0.00 79 1009.8
20260506040021 65 90 3.0 4.0 0.00 0.00 0.00 78 1009.8
20260506035518 65 105 1.0 5.0 0.00 0.00 0.00 78 1009.5
20260506035015 65 82 3.0 6.0 0.00 0.00 0.00 78 1009.5
20260506034512 65 85 2.0 4.0 0.00 0.00 0.00 78 1009.3
20260506034009 66 90 4.0 6.0 0.00 0.00 0.00 78 1009.0
20260506033507 66 159 2.0 3.0 0.00 0.00 0.00 78 1009.2
20260506033004 66 84 3.0 7.0 0.00 0.00 0.00 78 1009.0
20260506032501 67 195 2.0 2.0 0.00 0.00 0.00 77 1009.0
20260506031956 67 18 0.0 4.0 0.00 0.00 0.00 77 1008.8
20260506031455 67 74 2.0 4.0 0.00 0.00 0.00 77 1008.9
20260506030952 68 25 0.0 7.0 0.00 0.00 0.00 77 1009.1
20260506030450 68 315 2.0 4.0 0.00 0.00 0.00 76 1008.7
20260506025946 69 75 3.0 3.0 0.00 0.00 0.00 76 1008.8
20260506025443 69 174 0.0 12.0 0.00 0.00 0.00 76 1008.6
20260506024940 69 82 0.0 5.0 0.00 0.00 0.00 75 1008.7
20260506024437 69 186 1.0 5.0 0.00 0.00 0.00 75 1008.6
20260506023932 69 41 2.0 4.0 0.00 0.00 0.00 75 1008.3
20260506023429 69 180 0.0 6.0 0.00 0.00 0.00 75 1008.1
20260506022926 69 80 3.0 5.0 0.00 0.00 0.00 75 1008.2
20260506022424 69 21 2.0 3.0 0.00 0.00 0.00 74 1007.8
20260506021922 69 102 6.0 6.0 0.00 0.00 0.00 74 1007.7
20260506021419 69 90 2.0 5.0 0.00 0.00 0.00 73 1007.3
20260506020916 70 8 0.0 5.0 0.00 0.00 0.00 73 1007.7
20260506020414 70 151 0.0 5.0 0.00 0.00 0.00 73 1007.7
20260506015910 70 283 0.0 4.0 0.00 0.00 0.00 72 1007.2
20260506015408 70 122 0.0 5.0 0.00 0.00 0.00 72 1006.8
20260506014904 70 2 4.0 4.0 0.00 0.00 0.00 72 1006.9
20260506014401 71 301 0.0 3.0 0.00 0.00 0.00 72 1006.6
20260506013858 71 77 0.0 2.0 0.00 0.00 0.00 72 1007.0
20260506013356 71 249 1.0 5.0 0.00 0.00 0.00 72 1006.6
20260506012852 71 270 0.0 4.0 0.00 0.00 0.00 72 1006.9
20260506012349 71 8 0.0 5.0 0.00 0.00 0.00 71 1006.5
20260506011846 72 263 1.0 3.0 0.00 0.00 0.00 71 1006.7
20260506011343 72 187 0.0 4.0 0.00 0.00 0.00 71 1006.6
20260506010840 73 84 0.0 4.0 0.00 0.00 0.00 70 1006.7
20260506010338 73 0 0.0 4.0 0.00 0.00 0.00 69 1006.6
20260506005835 73 283 1.0 4.0 0.00 0.00 0.00 69 1006.5
20260506005331 73 90 0.0 4.0 0.00 0.00 0.00 68 1006.6
20260506004827 74 98 1.0 3.0 0.00 0.00 0.00 69 1006.1
20260506004325 74 90 0.0 5.0 0.00 0.00 0.00 68 1005.8
20260506003821 74 192 0.0 3.0 0.00 0.00 0.00 68 1005.5
20260506003318 75 112 0.0 4.0 0.00 0.00 0.00 67 1005.8
20260506002814 75 84 3.0 3.0 0.00 0.00 0.00 67 1005.7
20260506002311 75 90 2.0 4.0 0.00 0.00 0.00 67 1005.4
20260506001806 76 37 0.0 4.0 0.00 0.00 0.00 67 1005.4
20260506001304 76 76 0.0 4.0 0.00 0.00 0.00 67 1005.4
20260506000801 77 277 4.0 5.0 0.00 0.00 0.00 66 1005.5
20260506000258 77 17 3.0 5.0 0.00 0.00 0.00 66 1005.4
20260505235755 78 56 2.0 4.0 0.00 0.00 0.00 65 1005.1
20260505235253 79 78 0.0 5.0 0.00 0.00 0.00 65 1005.3
20260505234749 79 83 0.0 5.0 0.00 0.00 0.00 64 1005.3
20260505234247 79 254 1.0 6.0 0.00 0.00 0.00 64 1005.0
20260505233743 80 345 0.0 4.0 0.00 0.00 0.00 63 1005.0
20260505233241 80 245 0.0 8.0 0.00 0.00 0.00 63 1004.9
20260505232738 81 321 4.0 4.0 0.00 0.00 0.00 63 1004.9
20260505232236 81 233 3.0 5.0 0.00 0.00 0.00 62 1004.9
20260505231732 82 270 0.0 5.0 0.00 0.00 0.00 62 1004.9
20260505231231 83 83 3.0 3.0 0.00 0.00 0.00 61 1004.8
20260505230729 83 320 5.0 5.0 0.00 0.00 0.00 60 1004.8
20260505230225 83 90 3.0 7.0 0.00 0.00 0.00 59 1004.7
20260505225722 84 270 0.0 4.0 0.00 0.00 0.00 58 1004.5
20260505225219 84 293 0.0 5.0 0.00 0.00 0.00 58 1004.4
20260505224714 84 270 4.0 5.0 0.00 0.00 0.00 57 1004.1
20260505224212 85 234 1.0 5.0 0.00 0.00 0.00 56 1004.3
20260505223710 85 323 0.0 4.0 0.00 0.00 0.00 55 1004.2
20260505223205 85 294 3.0 5.0 0.00 0.00 0.00 53 1004.4
20260505222702 86 351 2.0 7.0 0.00 0.00 0.00 52 1004.1
20260505222158 86 270 3.0 6.0 0.00 0.00 0.00 53 1004.0
20260505221655 86 285 3.0 6.0 0.00 0.00 0.00 52 1003.9
20260505221152 87 319 2.0 3.0 0.00 0.00 0.00 52 1003.8
20260505220649 87 188 0.0 3.0 0.00 0.00 0.00 50 1003.8
20260505220147 88 60 1.0 3.0 0.00 0.00 0.00 52 1003.6